JA6CFI-13 Weather Reports


Display with metric or nautical units.
time (UTC)temp
F
wind
direction
speed
MPH
gust
MPH
rain 1hr
in
rain 24hr
in
rain mn
in
humidity
%
barometer
mb
20260508060023 71 298 5.0 8.0 0.00 0.00 0.00 47 1012.3
20260508054722 72 310 11.0 18.0 0.00 0.00 0.00 47 1012.2
20260508054205 71 311 4.0 10.0 0.00 0.00 0.00 48 1012.1
20260508053422 71 333 10.0 13.0 0.00 0.00 0.00 48 1012.3
20260508052123 70 339 6.0 9.0 0.00 0.00 0.00 51 1012.3
20260508051204 70 325 10.0 15.0 0.00 0.00 0.00 52 1012.2
20260508050823 70 315 3.0 16.0 0.00 0.00 0.00 51 1012.2
20260508045522 70 318 6.0 9.0 0.00 0.00 0.00 52 1012.2
20260508044223 69 316 8.0 13.0 0.00 0.00 0.00 51 1012.5
20260508044204 69 351 9.0 17.0 0.00 0.00 0.00 51 1012.5
20260508042922 70 304 7.0 13.0 0.00 0.00 0.00 51 1012.5
20260508041622 70 288 5.0 6.0 0.00 0.00 0.00 51 1012.6
20260508040323 70 329 10.0 17.0 0.00 0.00 0.00 50 1012.5
20260508035023 70 299 8.0 15.0 0.00 0.00 0.00 50 1012.5
20260508034205 70 327 9.0 15.0 0.00 0.00 0.00 52 1012.4
20260508033722 69 303 10.0 14.0 0.00 0.00 0.00 53 1012.4
20260508032422 70 329 8.0 12.0 0.00 0.00 0.00 55 1012.3
20260508031204 70 289 7.0 10.0 0.00 0.00 0.00 58 1012.2
20260508031125 70 266 8.0 16.0 0.00 0.00 0.00 59 1012.2
20260508025823 69 301 7.0 14.0 0.00 0.00 0.00 65 1012.2
20260508024523 69 320 12.0 15.0 0.00 0.00 0.00 67 1012.1
20260508024203 70 295 7.0 13.0 0.00 0.00 0.00 67 1012.1
20260508023222 70 259 5.0 11.0 0.00 0.00 0.00 68 1012.1
20260508021921 69 209 6.0 12.0 0.00 0.00 0.00 68 1012.1
20260508021205 69 271 4.0 9.0 0.00 0.00 0.00 68 1012.1
20260508020623 69 5 6.0 9.0 0.00 0.00 0.00 68 1012.2
20260508015322 69 297 8.0 13.0 0.00 0.00 0.00 70 1012.1
20260508014206 69 262 5.0 15.0 0.00 0.00 0.00 69 1012.1
20260508014022 69 279 6.0 13.0 0.00 0.00 0.00 69 1012.0
20260508012721 70 268 6.0 14.0 0.00 0.00 0.00 69 1011.8
20260508011423 69 224 6.0 10.0 0.00 0.00 0.00 72 1011.7
20260508011204 68 292 9.0 14.0 0.00 0.00 0.00 72 1011.7
20260508010122 68 239 9.0 14.0 0.00 0.00 0.00 73 1011.6
20260508004823 68 255 9.0 15.0 0.00 0.00 0.00 75 1011.7
20260508003522 67 244 8.0 14.0 0.00 0.00 0.00 77 1011.5
20260508002222 65 240 7.0 18.0 0.00 0.00 0.00 81 1011.7
20260508001205 65 223 6.0 8.0 0.00 0.00 0.00 81 1011.5
20260508000923 65 256 7.0 13.0 0.00 0.00 0.00 82 1011.5
20260507235623 65 248 6.0 9.0 0.00 0.00 0.00 82 1011.5
20260507234323 65 240 5.0 9.0 0.00 0.00 0.00 82 1011.7
20260507234204 65 237 4.0 8.0 0.00 0.00 0.00 82 1011.6
20260507233022 65 222 4.0 7.0 0.00 0.00 0.00 81 1011.6
20260507231722 65 258 6.0 10.0 0.00 0.00 0.00 79 1011.4
20260507231204 65 256 5.0 13.0 0.00 0.00 0.00 79 1011.4
20260507230423 65 240 2.0 6.0 0.00 0.00 0.00 79 1011.4
20260507225122 66 228 5.0 9.0 0.00 0.00 0.00 77 1011.4
20260507224206 66 263 7.0 12.0 0.00 0.00 0.00 76 1011.5
20260507223822 66 236 5.0 7.0 0.00 0.00 0.00 76 1011.4
20260507222521 66 225 7.0 10.0 0.00 0.00 0.00 75 1011.2
20260507221221 66 240 2.0 4.0 0.00 0.00 0.00 79 1011.0
20260507215923 66 244 2.0 2.0 0.00 0.00 0.00 78 1010.6
20260507214622 66 219 2.0 4.0 0.00 0.00 0.00 79 1010.5
20260507214205 65 227 1.0 2.0 0.00 0.00 0.00 80 1010.5
20260507213322 65 231 5.0 7.0 0.00 0.00 0.00 80 1010.6
20260507212023 65 227 6.0 10.0 0.00 0.00 0.00 83 1010.7
20260507211204 65 234 5.0 7.0 0.00 0.00 0.00 85 1010.7
20260507210721 66 242 5.0 9.0 0.00 0.00 0.00 85 1010.7
20260507205423 66 241 4.0 9.0 0.00 0.00 0.00 85 1010.5
20260507204204 67 252 6.0 12.0 0.00 0.00 0.00 83 1010.4
20260507204123 67 247 4.0 8.0 0.00 0.00 0.00 83 1010.4
20260507202823 67 208 2.0 4.0 0.00 0.00 0.00 81 1010.3
20260507201522 67 251 3.0 4.0 0.00 0.00 0.00 81 1010.3
20260507201205 67 248 1.0 2.0 0.00 0.00 0.00 81 1010.3
20260507200222 67 231 3.0 6.0 0.00 0.00 0.00 82 1010.2
20260507194921 67 257 2.0 2.0 0.00 0.00 0.00 83 1010.3
20260507194204 67 265 1.0 3.0 0.00 0.00 0.00 83 1010.1
20260507193623 67 243 2.0 4.0 0.00 0.00 0.00 83 1010.2
20260507192322 68 243 5.0 9.0 0.00 0.00 0.00 83 1010.3
20260507191205 68 262 3.0 5.0 0.00 0.00 0.00 83 1010.3
20260507191022 68 244 3.0 5.0 0.00 0.00 0.00 83 1010.3
20260507185722 68 266 4.0 6.0 0.00 0.00 0.00 83 1009.9
20260507184421 67 242 2.0 4.0 0.00 0.00 0.00 84 1009.9
20260507184206 67 242 2.0 2.0 0.00 0.00 0.00 84 1009.9
20260507183123 68 241 3.0 4.0 0.00 0.00 0.00 84 1009.8
20260507181822 67 241 1.0 3.0 0.00 0.00 0.00 84 1009.6
20260507181205 67 241 1.0 0.0 0.00 0.00 0.00 84 1009.7
20260507180522 67 241 2.0 5.0 0.00 0.00 0.00 84 1009.8
20260507175221 67 240 2.0 3.0 0.00 0.00 0.00 84 1009.7
20260507174204 67 221 1.0 3.0 0.00 0.00 0.00 83 1009.7
20260507173923 67 221 1.0 2.0 0.00 0.00 0.00 83 1009.7
20260507172622 67 227 3.0 5.0 0.00 0.00 0.00 83 1009.8
20260507171322 67 232 4.0 7.0 0.00 0.00 0.00 83 1009.8
20260507171203 67 254 6.0 7.0 0.00 0.00 0.00 83 1009.8
20260507170022 67 190 2.0 4.0 0.00 0.00 0.00 83 1009.9
20260507164721 67 182 4.0 6.0 0.00 0.00 0.00 84 1009.8
20260507164204 67 179 2.0 4.0 0.00 0.00 0.00 84 1009.9
20260507163423 66 192 2.0 5.0 0.00 0.00 0.00 84 1010.0
20260507162122 66 214 2.0 2.0 0.00 0.00 0.00 84 1010.2
20260507161203 66 208 2.0 5.0 0.00 0.00 0.00 84 1010.1
20260507160822 66 186 2.0 5.0 0.00 0.00 0.00 84 1010.1
20260507155522 67 182 2.0 4.0 0.00 0.00 0.00 84 1010.5
20260507154205 67 185 1.0 4.0 0.00 0.00 0.00 84 1010.6
20260507152923 67 157 3.0 5.0 0.00 0.00 0.00 84 1010.7
20260507151623 67 190 3.0 4.0 0.00 0.00 0.00 84 1010.9
20260507151203 67 177 1.0 2.0 0.00 0.00 0.00 84 1011.0
20260507150322 67 165 0.0 0.0 0.00 0.00 0.00 84 1011.0
20260507145021 67 141 2.0 3.0 0.00 0.00 0.00 83 1011.0
20260507144205 68 142 1.0 2.0 0.00 0.00 0.00 82 1011.1
20260507143723 68 222 0.0 1.0 0.00 0.00 0.00 82 1011.2
20260507142422 68 222 0.0 0.0 0.00 0.00 0.00 81 1011.2
20260507141203 69 222 0.0 1.0 0.00 0.00 0.00 81 1011.0
20260507141122 69 222 0.0 1.0 0.00 0.00 0.00 81 1011.0
20260507135822 69 243 0.0 0.0 0.00 0.00 0.00 81 1011.2
20260507134521 69 215 0.0 1.0 0.00 0.00 0.00 80 1011.3
20260507134204 69 284 0.0 0.0 0.00 0.00 0.00 80 1011.2
20260507133223 69 284 0.0 2.0 0.00 0.00 0.00 80 1011.2
20260507131922 69 284 1.0 1.0 0.00 0.00 0.00 80 1011.3
20260507131203 69 284 0.0 1.0 0.00 0.00 0.00 80 1011.3
20260507130622 69 170 0.0 1.0 0.00 0.00 0.00 80 1011.3
20260507125321 69 143 0.0 2.0 0.00 0.00 0.00 78 1011.3
20260507124205 70 236 0.0 1.0 0.00 0.00 0.00 78 1011.2
20260507124023 70 236 0.0 0.0 0.00 0.00 0.00 78 1011.2
20260507122723 70 236 0.0 0.0 0.00 0.00 0.00 78 1011.3
20260507121422 70 236 1.0 2.0 0.00 0.00 0.00 77 1011.4
20260507121204 70 235 0.0 1.0 0.00 0.00 0.00 77 1011.3
20260507120122 70 235 1.0 1.0 0.00 0.00 0.00 77 1011.3
20260507114821 70 235 0.0 0.0 0.00 0.00 0.00 76 1010.9
20260507114204 70 235 0.0 2.0 0.00 0.00 0.00 76 1010.9
20260507113523 70 235 0.0 0.0 0.00 0.00 0.00 76 1010.9
20260507112222 70 235 0.0 0.0 0.00 0.00 0.00 75 1010.8
20260507111204 70 235 0.0 3.0 0.00 0.00 0.00 74 1010.7
20260507110922 70 235 0.0 0.0 0.00 0.00 0.00 74 1010.6
20260507105621 71 289 0.0 0.0 0.00 0.00 0.00 73 1010.5
20260507104321 71 203 1.0 2.0 0.00 0.00 0.00 72 1010.5
20260507104204 71 203 0.0 2.0 0.00 0.00 0.00 72 1010.5
20260507103022 72 248 0.0 1.0 0.00 0.00 0.00 71 1010.5
20260507101722 72 248 0.0 3.0 0.00 0.00 0.00 70 1010.6
20260507101205 72 300 2.0 3.0 0.00 0.00 0.00 70 1010.5
20260507100421 72 304 2.0 3.0 0.00 0.00 0.00 70 1010.5
20260507095123 73 243 1.0 1.0 0.00 0.00 0.00 68 1010.3
20260507094204 73 297 2.0 5.0 0.00 0.00 0.00 67 1010.1
20260507093822 73 294 2.0 3.0 0.00 0.00 0.00 67 1010.0
20260507092522 74 234 4.0 5.0 0.00 0.00 0.00 66 1010.0
20260507091205 75 271 3.0 10.0 0.00 0.00 0.00 65 1010.0
20260507085921 76 251 4.0 6.0 0.00 0.00 0.00 63 1009.9
20260507084623 76 240 5.0 9.0 0.00 0.00 0.00 63 1009.9
20260507084203 76 263 1.0 5.0 0.00 0.00 0.00 64 1009.9
20260507083322 76 270 7.0 9.0 0.00 0.00 0.00 63 1010.0
20260507082021 76 267 5.0 11.0 0.00 0.00 0.00 64 1010.1
20260507081205 77 306 1.0 3.0 0.00 0.00 0.00 63 1010.1
20260507080723 77 281 4.0 7.0 0.00 0.00 0.00 62 1010.1
20260507075422 79 246 4.0 7.0 0.00 0.00 0.00 60 1010.0
20260507074203 79 243 5.0 7.0 0.00 0.00 0.00 60 1010.0
20260507074122 79 243 5.0 7.0 0.00 0.00 0.00 60 1010.0
20260507072822 78 301 4.0 6.0 0.00 0.00 0.00 62 1010.1
20260507071521 78 286 4.0 7.0 0.00 0.00 0.00 61 1010.2
20260507071204 78 296 4.0 6.0 0.00 0.00 0.00 62 1010.2
20260507070223 77 318 4.0 7.0 0.00 0.00 0.00 64 1010.2
20260507064922 77 309 6.0 14.0 0.00 0.00 0.00 64 1010.4
20260507064204 76 306 2.0 3.0 0.00 0.00 0.00 67 1010.5
20260507063621 76 12 4.0 9.0 0.00 0.00 0.00 67 1010.4
20260507062321 76 7 4.0 6.0 0.00 0.00 0.00 67 1010.4
20260507061205 76 28 5.0 7.0 0.00 0.00 0.00 66 1010.5
20260507061022 76 39 4.0 6.0 0.00 0.00 0.00 66 1010.6